GLO1756 SBPV-SBEG

Flight info

Callsign GLO1756
Flight time 1h 6m
Altitude 35000
Route MUPEG UZ74 IGAPO
Aircraft B738/M-SDE2E3FGHIRWXY/LB1

Departure

Time 2026-05-06 23:02
Airport Governador Jorge Teixeira de Oliveira International Airport (SBPV)

Arrival

Time 2026-05-07 00:08
Airport Eduardo Gomes International Airport (SBEG)
Time Latitude Longitude Altitude Speed Heading
2026-05-06 22:44 -8.71420 -63.89934 298 ft 0 kts 86°
2026-05-06 22:55 -8.71420 -63.89941 300 ft 4 kts 86°
2026-05-06 22:55 -8.71422 -63.89969 300 ft 4 kts 85°
2026-05-06 22:55 -8.71424 -63.89996 298 ft 4 kts 87°
2026-05-06 22:56 -8.71424 -63.90023 298 ft 4 kts 99°
2026-05-06 22:56 -8.71415 -63.90046 298 ft 4 kts 138°
2026-05-06 22:56 -8.71393 -63.90058 299 ft 3 kts 175°
2026-05-06 22:56 -8.71386 -63.90058 299 ft 0 kts 177°
2026-05-06 22:58 -8.71397 -63.90058 301 ft 7 kts 177°
2026-05-06 22:58 -8.71461 -63.90054 298 ft 11 kts 177°
2026-05-06 22:59 -8.71542 -63.90050 298 ft 12 kts 177°
2026-05-06 22:59 -8.71623 -63.90044 298 ft 12 kts 176°
2026-05-06 22:59 -8.71702 -63.90039 298 ft 11 kts 176°
2026-05-06 22:59 -8.71779 -63.90035 301 ft 11 kts 177°
2026-05-06 23:00 -8.71853 -63.90035 298 ft 11 kts 189°
2026-05-06 23:00 -8.71916 -63.90071 299 ft 10 kts 220°
2026-05-06 23:00 -8.71969 -63.90117 302 ft 10 kts 220°
2026-05-06 23:00 -8.71995 -63.90159 300 ft 2 kts 295°
2026-05-06 23:01 -8.71982 -63.90166 298 ft 2 kts 340°
2026-05-06 23:01 -8.71973 -63.90167 299 ft 0 kts 354°
2026-05-06 23:01 -8.71958 -63.90168 299 ft 14 kts 355°
2026-05-06 23:01 -8.71597 -63.90190 299 ft 89 kts 356°
2026-05-06 23:02 -8.70751 -63.90241 302 ft 151 kts 356°
2026-05-06 23:02 -8.69629 -63.90308 814 ft 163 kts 357°
2026-05-06 23:02 -8.68477 -63.90375 1541 ft 167 kts 357°
2026-05-06 23:02 -8.67314 -63.90447 2246 ft 173 kts 357°
2026-05-06 23:03 -8.66009 -63.90525 2526 ft 203 kts 357°
2026-05-06 23:03 -8.64521 -63.90598 2726 ft 225 kts
2026-05-06 23:03 -8.63014 -63.90070 3005 ft 240 kts 35°
2026-05-06 23:03 -8.61663 -63.88986 3413 ft 253 kts 39°
2026-05-06 23:04 -8.60285 -63.87843 4119 ft 257 kts 40°
2026-05-06 23:04 -8.58905 -63.86696 4988 ft 257 kts 40°
2026-05-06 23:04 -8.57511 -63.85542 5737 ft 261 kts 40°
2026-05-06 23:04 -8.56095 -63.84371 6464 ft 265 kts 40°
2026-05-06 23:05 -8.54659 -63.83186 7164 ft 268 kts 40°
2026-05-06 23:05 -8.53199 -63.81984 7864 ft 272 kts 40°
2026-05-06 23:05 -8.51716 -63.80765 8552 ft 276 kts 40°
2026-05-06 23:05 -8.50216 -63.79532 9241 ft 280 kts 40°
2026-05-06 23:06 -8.48695 -63.78283 9929 ft 284 kts 41°
2026-05-06 23:06 -8.47173 -63.77034 10573 ft 286 kts 41°
2026-05-06 23:06 -8.45621 -63.75761 11249 ft 288 kts 41°
2026-05-06 23:06 -8.44058 -63.74479 11944 ft 291 kts 41°
2026-05-06 23:07 -8.42478 -63.73183 12622 ft 294 kts 41°
2026-05-06 23:07 -8.40875 -63.71868 13310 ft 298 kts 41°
2026-05-06 23:07 -8.39261 -63.70545 14005 ft 300 kts 41°
2026-05-06 23:07 -8.37632 -63.69211 14648 ft 303 kts 41°
2026-05-06 23:08 -8.35986 -63.67862 15328 ft 305 kts 41°
2026-05-06 23:08 -8.34338 -63.66513 16028 ft 306 kts 41°
2026-05-06 23:08 -8.32679 -63.65153 16697 ft 308 kts 41°
2026-05-06 23:08 -8.31019 -63.63792 17330 ft 311 kts 41°
2026-05-06 23:09 -8.29326 -63.62407 17978 ft 314 kts 41°
2026-05-06 23:09 -8.27623 -63.61012 18580 ft 317 kts 41°
2026-05-06 23:09 -8.25902 -63.59607 19146 ft 320 kts 40°
2026-05-06 23:09 -8.24092 -63.58285 19699 ft 323 kts 36°
2026-05-06 23:10 -8.22209 -63.57022 20260 ft 326 kts 35°
2026-05-06 23:10 -8.20295 -63.55762 20826 ft 329 kts 35°
2026-05-06 23:10 -8.18366 -63.54492 21371 ft 332 kts 35°
2026-05-06 23:10 -8.16450 -63.53224 21901 ft 335 kts 35°
2026-05-06 23:11 -8.14492 -63.51921 22453 ft 338 kts 36°
2026-05-06 23:11 -8.12518 -63.50602 22965 ft 341 kts 36°
2026-05-06 23:11 -8.10528 -63.49268 23482 ft 345 kts 36°
2026-05-06 23:11 -8.08520 -63.47922 23916 ft 347 kts 36°
2026-05-06 23:12 -8.06496 -63.46563 24358 ft 350 kts 36°
2026-05-06 23:12 -8.04489 -63.45215 24791 ft 352 kts 36°
2026-05-06 23:12 -8.02439 -63.43837 25222 ft 355 kts 36°
2026-05-06 23:12 -8.00372 -63.42449 25659 ft 358 kts 36°
2026-05-06 23:13 -7.98293 -63.41053 26102 ft 360 kts 36°
2026-05-06 23:13 -7.96198 -63.39646 26522 ft 362 kts 35°
2026-05-06 23:13 -7.94093 -63.38234 26965 ft 364 kts 35°
2026-05-06 23:13 -7.91976 -63.36812 27389 ft 366 kts 35°
2026-05-06 23:14 -7.89871 -63.35399 27791 ft 369 kts 35°
2026-05-06 23:14 -7.87727 -63.33960 28175 ft 372 kts 35°
2026-05-06 23:14 -7.85561 -63.32508 28566 ft 374 kts 35°
2026-05-06 23:14 -7.83384 -63.31048 28965 ft 377 kts 35°
2026-05-06 23:15 -7.81191 -63.29580 29361 ft 379 kts 35°
2026-05-06 23:15 -7.78988 -63.28105 29748 ft 382 kts 35°
2026-05-06 23:15 -7.76762 -63.26614 30096 ft 385 kts 35°
2026-05-06 23:15 -7.74520 -63.25112 30405 ft 387 kts 35°
2026-05-06 23:16 -7.72267 -63.23604 30721 ft 389 kts 35°
2026-05-06 23:16 -7.70038 -63.22111 31006 ft 390 kts 34°
2026-05-06 23:16 -7.67767 -63.20590 31258 ft 392 kts 34°
2026-05-06 23:16 -7.65484 -63.19061 31501 ft 394 kts 34°
2026-05-06 23:17 -7.63193 -63.17527 31753 ft 396 kts 34°
2026-05-06 23:17 -7.60890 -63.15985 32005 ft 398 kts 34°
2026-05-06 23:17 -7.58576 -63.14437 32251 ft 400 kts 34°
2026-05-06 23:17 -7.56250 -63.12880 32489 ft 401 kts 34°
2026-05-06 23:18 -7.53949 -63.11341 32773 ft 401 kts 34°
2026-05-06 23:18 -7.51616 -63.09780 33063 ft 401 kts 34°
2026-05-06 23:18 -7.49281 -63.08219 33291 ft 403 kts 34°
2026-05-06 23:18 -7.46932 -63.06651 33506 ft 405 kts 34°
2026-05-06 23:19 -7.44576 -63.05078 33730 ft 407 kts 33°
2026-05-06 23:19 -7.42215 -63.03501 33948 ft 408 kts 33°
2026-05-06 23:19 -7.39841 -63.01916 34146 ft 410 kts 33°
2026-05-06 23:19 -7.37454 -63.00325 34336 ft 411 kts 33°
2026-05-06 23:20 -7.35096 -62.98751 34516 ft 413 kts 33°
2026-05-06 23:20 -7.32701 -62.97152 34692 ft 414 kts 33°
2026-05-06 23:20 -7.30294 -62.95545 34852 ft 415 kts 33°
2026-05-06 23:21 -7.25429 -62.92296 34953 ft 425 kts 33°
2026-05-06 23:21 -7.20441 -62.88965 34970 ft 435 kts 33°
2026-05-06 23:22 -7.15335 -62.85559 34965 ft 444 kts 33°
2026-05-06 23:22 -7.10205 -62.82138 34960 ft 446 kts 33°
2026-05-06 23:23 -7.05022 -62.78682 34958 ft 447 kts 33°
2026-05-06 23:23 -6.99826 -62.75219 34969 ft 451 kts 33°
2026-05-06 23:24 -6.94545 -62.71699 34972 ft 459 kts 33°
2026-05-06 23:24 -6.89175 -62.68101 34968 ft 467 kts 33°
2026-05-06 23:25 -6.83760 -62.64453 34961 ft 469 kts 33°
2026-05-06 23:25 -6.78329 -62.60797 34959 ft 470 kts 33°
2026-05-06 23:26 -6.72925 -62.57163 34959 ft 470 kts 34°
2026-05-06 23:26 -6.67489 -62.53510 34963 ft 470 kts 34°
2026-05-06 23:27 -6.62051 -62.49854 34956 ft 469 kts 34°
2026-05-06 23:27 -6.56612 -62.46200 34962 ft 469 kts 34°
2026-05-06 23:28 -6.51229 -62.42586 34963 ft 469 kts 33°
2026-05-06 23:28 -6.45780 -62.38971 34964 ft 469 kts 33°
2026-05-06 23:29 -6.40330 -62.35375 34965 ft 468 kts 33°
2026-05-06 23:29 -6.35803 -62.32383 34968 ft 468 kts 33°
2026-05-06 23:30 -6.29477 -62.28199 34966 ft 468 kts 33°
2026-05-06 23:30 -6.24040 -62.24603 34967 ft 467 kts 33°
2026-05-06 23:31 -6.19524 -62.21616 34964 ft 467 kts 33°
2026-05-06 23:31 -6.14088 -62.18022 34971 ft 467 kts 33°
2026-05-06 23:32 -6.08667 -62.14438 34967 ft 466 kts 33°
2026-05-06 23:32 -6.03240 -62.10851 34969 ft 466 kts 33°
2026-05-06 23:33 -5.97819 -62.07269 34972 ft 467 kts 33°
2026-05-06 23:33 -5.92416 -62.03700 34972 ft 467 kts 33°
2026-05-06 23:34 -5.86981 -62.00112 34969 ft 468 kts 33°
2026-05-06 23:34 -5.81540 -61.96519 34970 ft 468 kts 33°
2026-05-06 23:35 -5.76083 -61.92916 34975 ft 469 kts 33°
2026-05-06 23:35 -5.70606 -61.89303 34973 ft 471 kts 33°
2026-05-06 23:36 -5.65172 -61.85714 34971 ft 470 kts 33°
2026-05-06 23:36 -5.59697 -61.82112 34960 ft 470 kts 32°
2026-05-06 23:37 -5.53998 -61.78916 34972 ft 468 kts 27°
2026-05-06 23:37 -5.48207 -61.75928 34964 ft 467 kts 27°
2026-05-06 23:38 -5.42439 -61.72917 34970 ft 466 kts 28°
2026-05-06 23:38 -5.36734 -61.69873 34984 ft 467 kts 28°
2026-05-06 23:39 -5.30996 -61.66805 34962 ft 467 kts 28°
2026-05-06 23:39 -5.25247 -61.63746 34974 ft 468 kts 28°
2026-05-06 23:40 -5.19522 -61.60656 34968 ft 467 kts 28°
2026-05-06 23:40 -5.13808 -61.57592 34964 ft 469 kts 28°
2026-05-06 23:41 -5.08051 -61.54507 34962 ft 470 kts 28°
2026-05-06 23:41 -5.02293 -61.51423 34967 ft 469 kts 28°
2026-05-06 23:42 -4.96543 -61.48347 34972 ft 467 kts 28°
2026-05-06 23:42 -4.90864 -61.45310 34947 ft 449 kts 28°
2026-05-06 23:43 -4.85460 -61.42413 34819 ft 448 kts 28°
2026-05-06 23:43 -4.82670 -61.40911 34501 ft 458 kts 28°
2026-05-06 23:43 -4.79816 -61.39379 34090 ft 467 kts 28°
2026-05-06 23:43 -4.76961 -61.37851 33624 ft 462 kts 28°
2026-05-06 23:44 -4.74124 -61.36353 33180 ft 462 kts 28°
2026-05-06 23:44 -4.71275 -61.34839 32745 ft 464 kts 29°
2026-05-06 23:44 -4.68467 -61.33340 32301 ft 461 kts 29°
2026-05-06 23:44 -4.65647 -61.31832 31873 ft 458 kts 30°
2026-05-06 23:45 -4.62847 -61.30333 31452 ft 455 kts 30°
2026-05-06 23:45 -4.60066 -61.28845 31031 ft 452 kts 30°
2026-05-06 23:45 -4.57303 -61.27368 30613 ft 449 kts 30°
2026-05-06 23:45 -4.54534 -61.25886 30203 ft 457 kts 30°
2026-05-06 23:46 -4.51686 -61.24361 29697 ft 468 kts 30°
2026-05-06 23:46 -4.48813 -61.22825 29217 ft 468 kts 30°
2026-05-06 23:46 -4.45966 -61.21304 28733 ft 464 kts 30°
2026-05-06 23:46 -4.43131 -61.19791 28270 ft 460 kts 30°
2026-05-06 23:47 -4.40310 -61.18286 27816 ft 458 kts 30°
2026-05-06 23:47 -4.37508 -61.16791 27371 ft 455 kts 30°
2026-05-06 23:47 -4.34717 -61.15301 26924 ft 453 kts 30°
2026-05-06 23:47 -4.31941 -61.13818 26487 ft 451 kts 30°
2026-05-06 23:48 -4.29179 -61.12343 26041 ft 449 kts 30°
2026-05-06 23:48 -4.26424 -61.10872 25581 ft 448 kts 30°
2026-05-06 23:48 -4.23676 -61.09404 25135 ft 447 kts 30°
2026-05-06 23:48 -4.20883 -61.07911 24692 ft 463 kts 30°
2026-05-06 23:49 -4.17993 -61.06365 24208 ft 477 kts 30°
2026-05-06 23:49 -4.15063 -61.04800 23725 ft 478 kts 30°
2026-05-06 23:49 -4.12142 -61.03242 23185 ft 473 kts 30°
2026-05-06 23:49 -4.09247 -61.01700 22681 ft 467 kts 30°
2026-05-06 23:50 -4.06391 -61.00177 22206 ft 462 kts 30°
2026-05-06 23:50 -4.00757 -60.97172 21284 ft 455 kts 30°
2026-05-06 23:50 -3.98006 -60.95704 20839 ft 453 kts 30°
2026-05-06 23:51 -3.95227 -60.94221 20391 ft 451 kts 30°
2026-05-06 23:51 -3.92455 -60.92742 19919 ft 450 kts 30°
2026-05-06 23:51 -3.89697 -60.91270 19477 ft 448 kts 30°
2026-05-06 23:51 -3.86947 -60.89804 19010 ft 447 kts 30°
2026-05-06 23:52 -3.84213 -60.88346 18554 ft 444 kts 30°
2026-05-06 23:52 -3.81492 -60.86894 18082 ft 441 kts 30°
2026-05-06 23:52 -3.78794 -60.85455 17595 ft 437 kts 30°
2026-05-06 23:52 -3.76122 -60.84030 17139 ft 433 kts 30°
2026-05-06 23:53 -3.73480 -60.82621 16695 ft 426 kts 30°
2026-05-06 23:53 -3.70892 -60.81235 16258 ft 417 kts 31°
2026-05-06 23:53 -3.68483 -60.79686 15781 ft 407 kts 37°
2026-05-06 23:53 -3.66246 -60.78007 15369 ft 398 kts 39°
2026-05-06 23:54 -3.64084 -60.76316 14961 ft 390 kts 40°
2026-05-06 23:54 -3.61956 -60.74654 14556 ft 386 kts 39°
2026-05-06 23:54 -3.59871 -60.73046 14174 ft 382 kts 39°
2026-05-06 23:54 -3.57767 -60.71446 13767 ft 378 kts 39°
2026-05-06 23:55 -3.55672 -60.69869 13332 ft 373 kts 38°
2026-05-06 23:55 -3.53589 -60.68309 12937 ft 374 kts 38°
2026-05-06 23:55 -3.51496 -60.66745 12543 ft 376 kts 38°
2026-05-06 23:55 -3.49406 -60.65186 12153 ft 373 kts 38°
2026-05-06 23:56 -3.47330 -60.63638 11763 ft 370 kts 38°
2026-05-06 23:56 -3.45273 -60.62103 11383 ft 367 kts 38°
2026-05-06 23:56 -3.43231 -60.60579 11004 ft 365 kts 38°
2026-05-06 23:56 -3.41202 -60.59065 10624 ft 362 kts 38°
2026-05-06 23:57 -3.39229 -60.57593 10248 ft 355 kts 38°
2026-05-06 23:57 -3.37284 -60.56141 10061 ft 342 kts 38°
2026-05-06 23:57 -3.35402 -60.54737 9785 ft 334 kts 38°
2026-05-06 23:57 -3.33547 -60.53351 9420 ft 329 kts 38°
2026-05-06 23:58 -3.31727 -60.51992 9071 ft 324 kts 38°
2026-05-06 23:58 -3.29931 -60.50650 8733 ft 319 kts 38°
2026-05-06 23:58 -3.28163 -60.49330 8402 ft 315 kts 38°
2026-05-06 23:58 -3.26420 -60.48029 8082 ft 311 kts 38°
2026-05-06 23:59 -3.24695 -60.46744 7768 ft 307 kts 38°
2026-05-06 23:59 -3.22990 -60.45474 7445 ft 304 kts 38°
2026-05-06 23:59 -3.21307 -60.44222 7128 ft 298 kts 38°
2026-05-06 23:59 -3.19671 -60.43003 6814 ft 288 kts 38°
2026-05-07 00:00 -3.18084 -60.41821 6524 ft 280 kts 38°
2026-05-07 00:00 -3.16537 -60.40668 6223 ft 273 kts 38°
2026-05-07 00:00 -3.15018 -60.39536 5936 ft 271 kts 38°
2026-05-07 00:00 -3.13529 -60.38427 5653 ft 269 kts 38°
2026-05-07 00:01 -3.12029 -60.37311 5376 ft 267 kts 38°
2026-05-07 00:01 -3.10545 -60.36205 5104 ft 265 kts 38°
2026-05-07 00:01 -3.09065 -60.35102 4826 ft 264 kts 38°
2026-05-07 00:01 -3.07595 -60.34006 4536 ft 262 kts 38°
2026-05-07 00:02 -3.06140 -60.32921 4281 ft 257 kts 38°
2026-05-07 00:02 -3.04766 -60.31834 4091 ft 244 kts 48°
2026-05-07 00:02 -3.04058 -60.30377 3954 ft 228 kts 80°
2026-05-07 00:02 -3.03893 -60.28852 3926 ft 211 kts 85°
2026-05-07 00:03 -3.03831 -60.27452 3958 ft 200 kts 88°
2026-05-07 00:03 -3.03818 -60.26068 3925 ft 198 kts 89°
2026-05-07 00:03 -3.03818 -60.24712 3727 ft 192 kts 89°
2026-05-07 00:03 -3.03821 -60.23385 3480 ft 188 kts 89°
2026-05-07 00:04 -3.03824 -60.22089 3260 ft 185 kts 89°
2026-05-07 00:04 -3.03826 -60.20805 3011 ft 182 kts 89°
2026-05-07 00:04 -3.03829 -60.19556 2773 ft 177 kts 89°
2026-05-07 00:04 -3.03829 -60.18329 2497 ft 175 kts 89°
2026-05-07 00:05 -3.03834 -60.17155 2378 ft 167 kts 90°
2026-05-07 00:05 -3.03864 -60.16020 2232 ft 159 kts 89°
2026-05-07 00:05 -3.03864 -60.14953 2068 ft 149 kts 88°
2026-05-07 00:05 -3.03851 -60.13928 1818 ft 146 kts 88°
2026-05-07 00:06 -3.03850 -60.12924 1599 ft 143 kts 89°
2026-05-07 00:06 -3.03857 -60.11921 1409 ft 144 kts 89°
2026-05-07 00:06 -3.03858 -60.10920 1224 ft 145 kts 89°
2026-05-07 00:06 -3.03857 -60.09900 1034 ft 148 kts 89°
2026-05-07 00:07 -3.03852 -60.08876 841 ft 147 kts 89°
2026-05-07 00:07 -3.03857 -60.07861 664 ft 145 kts 90°
2026-05-07 00:07 -3.03855 -60.06861 452 ft 143 kts 90°
2026-05-07 00:07 -3.03858 -60.05864 270 ft 141 kts 90°
2026-05-07 00:08 -3.03860 -60.05039 267 ft 88 kts 90°
2026-05-07 00:08 -3.03860 -60.04587 269 ft 56 kts 90°
2026-05-07 00:08 -3.03861 -60.04215 268 ft 46 kts 90°
2026-05-07 00:08 -3.03862 -60.03910 267 ft 37 kts 90°
2026-05-07 00:09 -3.03801 -60.03772 268 ft 20 kts 19°
2026-05-07 00:09 -3.03690 -60.03828 268 ft 19 kts 295°
2026-05-07 00:09 -3.03653 -60.03956 267 ft 19 kts 285°
2026-05-07 00:09 -3.03619 -60.04080 267 ft 18 kts 285°
2026-05-07 00:10 -3.03587 -60.04199 267 ft 18 kts 289°
2026-05-07 00:10 -3.03523 -60.04300 267 ft 17 kts 314°
2026-05-07 00:10 -3.03427 -60.04364 267 ft 16 kts 337°
2026-05-07 00:10 -3.03333 -60.04407 267 ft 13 kts 295°
2026-05-07 00:11 -3.03297 -60.04439 267 ft 7 kts 342°
2026-05-07 00:11 -3.03252 -60.04450 267 ft 7 kts 345°
2026-05-07 00:11 -3.03249 -60.04451 267 ft 0 kts 345°